Regional Weather Roundup
Issued by NWS

Home | Current Version | Previous Version | Text Only | Print | Product List | Glossary On
Versions: 1 2 3 4 5 6 7 8 9 10 11 12 13 14 15 16 17 18 19 20 21 22 23 24 25 26 27 28 29 30 31 32 33 34 35 36 37 38 39 40 41 42 43 44 45 46 47 48 49 50
444
ASUS44 KMEG 061810
RWRTN
TENNESSEE HOURLY STATE WEATHER ROUNDUP
NATIONAL WEATHER SERVICE MEMPHIS TN
1200 PM CST TUE DEC 06 2016

TNZ002-004-019-021-049-052-054-088>092-061900-
WEST TENNESSEE

CITY           SKY/WX    TMP DP  RH WIND       PRES   REMARKS
MEMPHIS INTL   CLOUDY    47  44  90 NW7       29.89R
NWS MEMPHIS      N/A     46 N/A N/A MISG        N/A
JACKSON        CLOUDY    46  43  89 NW12      29.85R
DYERSBURG      CLOUDY   N/A N/A N/A NW7       29.87S
UNION CITY     CLOUDY    43  43 100 NW12      29.84S
HUNTINGDON     CLOUDY    46  43  87 NW8       29.83R
LEXINGTON      CLOUDY    46  45  93 NW10      29.81R
$$

TNZ008-025-027-028-033-062-065-066-061900-
NORTH MIDDLE TENNESSEE

CITY           SKY/WX    TMP DP  RH WIND       PRES   REMARKS
NASHVILLE      CLOUDY    50  47  89 NW12      29.73R
PORTLAND       CLOUDY    48  46  93 W8        29.74R
CLARKSVILLE    CLOUDY    46  43  89 NW14      29.78R
SMYRNA         LGT RAIN  52  52 100 W13       29.73R
CROSSVILLE     CLOUDY    53  51  93 VRB7      29.69S FOG
$$

TNZ061-075-076-078-094-096-097-061900-
SOUTH MIDDLE TENNESSEE

CITY           SKY/WX    TMP DP  RH WIND       PRES   REMARKS
FAYETTEVILLE   CLOUDY    57  55  94 W8G17     29.72R
TULLAHOMA      CLOUDY    57  55  94 W12       29.72R
WINCHESTER     CLOUDY    59  55  88 W12       29.72R
MCMINNVILLE    CLOUDY    57  57 100 SW9       29.69R
COLUMBIA       CLOUDY   N/A N/A N/A VRB5      29.75R
SHELBYVILLE    CLOUDY    61  57  88 W15       29.72R
$$

TNZ017-018-042-046-047-061900-
NORTHEAST TENNESSEE

CITY           SKY/WX    TMP DP  RH WIND       PRES   REMARKS
TRI CITIES     HVY RAIN  46  44  93 E3        29.71F FOG
ELIZABETHTON   CLOUDY    46  43  87 E12G20    29.71F
$$

TNZ012-013-036-069-073-074-061900-
CENTRAL EAST TENNESSEE

CITY           SKY/WX    TMP DP  RH WIND       PRES   REMARKS
KNOXVILLE      CLOUDY    52  49  89 CALM      29.68S
OAK RIDGE      LGT RAIN  53  49  86 CALM      29.70S
DOWNTOWN KNOXV PTSUNNY   52  52 100 CALM      29.70F
GATLINBURG     MOSUNNY   48  48 100 CALM      29.68F
MORRISTOWN     CLOUDY    50  50 100 CALM      29.69R FOG
JACKSBORO      CLOUDY    52  50  93 CALM      29.71F FOG
$$

TNZ083-085-099-061900-
SOUTHEAST TENNESSEE

CITY           SKY/WX    TMP DP  RH WIND       PRES   REMARKS
CHATTANOOGA    DRIZZLE   56  53  90 S7        29.71S FOG
$$

SKY/WX REPORTED AS FAIR MEANS FEW OR NO CLOUDS BELOW
12 THOUSAND FEET.





USA.gov is the U.S. government's official web portal to all federal, state and local government web resources and services.